Regional Weather Roundup
Issued by NWS Jackson, KY

Home | Current Version | Previous Version | Graphics & Text | Print | Product List | Glossary On
Versions: 1 2 3 4 5 6 7 8 9 10 11 12 13 14 15 16 17 18 19 20 21 22 23 24 25 26 27
000
ASUS43 KJKL 221410
RWRJKL

EAST KENTUCKY HOURLY WEATHER ROUNDUP
NATIONAL WEATHER SERVICE JACKSON KY
1000 AM EDT SUN APR 22 2018

NOTE: "FAIR" INDICATES FEW OR NO CLOUDS BELOW 12,000 FEET WITH
NO SIGNIFICANT WEATHER AND/OR OBSTRUCTIONS TO VISIBILITY.

* THESE REPORTS ARE NOT UNDER NWS QUALITY CONTROL AND MAY NOT
  REPORT WEATHER SUCH AS PRECIPITATION AND FOG.

KYZ079-080-083-085-087-088-110-112-115-119-120-221500
...EASTERN KENTUCKY...

CITY           SKY/WX    TMP DP  RH WIND       PRES   REMARKS
JACKSON          N/A     57  27  31 CALM      30.26F
LONDON           N/A     58  38  47 VRB3      30.25S
SOMERSET*        N/A     57  36  44 MISG      30.25F
MONTICELLO*    CLOUDY    56  44  64 W7        30.25F
WILLIAMSBURG*    N/A     57  37  47 SE6       30.25S
MIDDLESBORO*     N/A     54  41  62 CALM      30.27F
HARLAN APT*      N/A     54  40  59 CALM      30.27F
PIKE CO APT*     N/A     59  36  41 CALM      30.27S
BIG SANDY APT*   N/A     56  31  38 CALM      30.28S
MOREHEAD APT*    N/A     59  25  27 S3        30.29R
ASHLAND*         N/A     55  30  38 VRB5      30.29S
$$

KYZ035-036-041-042-044-050-067-078-099-221500
...CENTRAL KENTUCKY...

CITY           SKY/WX    TMP DP  RH WIND       PRES   REMARKS
MT STERLING*     N/A     54  30  40 E5        30.28F
FLEMING/MASON*   N/A     52  30  43 NE3       30.30R
DANVILLE*        N/A     54  36  50 CALM      30.26S
LEXINGTON        N/A     56  31  38 NE8       30.25F
FRANKFORT        N/A     54  30  40 E7        30.24F
LOUISVILLE     PTSUNNY   57  29  34 E5        30.24S
GLASGOW*         N/A     54  40  59 NE8       30.18F
BOWLING GREEN    N/A     56  42  59 E5        30.17F
$$

KYZ091>093-OHZ055-061-077-WVZ005-015-034-035-042-221500
...SOUTHERN OHIO/WEST VIRGINIA...

CITY           SKY/WX    TMP DP  RH WIND       PRES   REMARKS
COVINGTON      PTSUNNY   53  29  39 NE9       30.29R
COLUMBUS       CLOUDY    52  30  43 E5        30.33F
DAYTON         CLOUDY    49  33  54 NE10      30.32F
WILMINGTON     PTSUNNY   48  34  58 NE9       30.30F
HUNTINGTON       N/A     52  28  39 NE6       30.28S
CHARLESTON     CLOUDY    55  28  35 CALM      30.28S
PINEVILLE*       N/A     58  34  39 MISG      30.33S
BECKLEY          N/A     58  34  40 SE5       30.29F
BLUEFIELD        N/A     55  29  36 VRB3      30.30F
LOGAN CO APT*    N/A     61  32  33 CALM      30.27S
$$

VAZ002-007-008-TNZ017-027-036-066-071-221500
...SOUTHWEST VIRGINIA/EAST TENNESSEE...

CITY           SKY/WX    TMP DP  RH WIND       PRES   REMARKS
WISE*            N/A     59  34  38 S7        30.30S
JONESVILLE*      N/A     57  41  54 CALM      30.29F
ABINGDON*        N/A     59  39  47 E5        30.30F
BRISTOL        CLOUDY    57  42  57 VRB3      30.29F
MORRISTOWN*    SUNNY     61  39  44 E10       30.25S
SEVIERVILLE*   SUNNY     59  43  55 CALM      30.24S
KNOXVILLE      CLOUDY    58  41  53 N6        30.24R
LAFOLLETTE*    SUNNY     55  43  62 CALM      30.30R
OAK RIDGE        N/A     57  45  64 E3        30.26S
CROSSVILLE     CLOUDY    57  40  52 SE8G17    30.21F
NASHVILLE      CLOUDY    60  48  64 NE6       30.14R
$$

...KEY TO REMARKS...
VSB - VISIBILITY IN MILES
WCI - WIND CHILL INDEX
HX  - HEAT INDEX

$$




USA.gov is the U.S. government's official web portal to all federal, state and local government web resources and services.